contact:dominique.lefevre@mio.osupytheas.fr, maurice.libes@osupytheas.fr, didier.mallarino@osupytheas.fr
Project:EMSO http://www.emso-fr.org/EMSO-France
Depth: 2436.0 m
Title:EMSO Ligure Ouest : Data MII capteur CSTAR
DateTime,Latitude,Longitude,Instrument_Serial,Reference_Counts,Signal_Counts,Corrected_Signal_raw_counts,Calculated_Beam_c_inverse_meters,Internal_thermistor_counts
DateTime,Latitude,Longitude,Instrument_Serial,Reference_Counts,Signal_Counts,Corrected_Signal_raw_counts,Calculated_Beam_c_inverse_meters,Internal_thermistor_counts
2020-04-19T00:03:00,42.805,6.029,CST-1368DR,6446,9037,15189,0.111,550
2020-04-19T00:06:01,42.805,6.029,CST-1368DR,6446,9037,15189,0.111,551
2020-04-19T00:09:03,42.805,6.029,CST-1368DR,6446,9036,15187,0.111,551
2020-04-19T00:12:05,42.805,6.029,CST-1368DR,6446,9037,15189,0.111,551
2020-04-19T00:15:07,42.805,6.029,CST-1368DR,6446,9037,15190,0.111,551
2020-04-19T00:18:08,42.805,6.029,CST-1368DR,6446,9037,15190,0.111,551
2020-04-19T00:21:10,42.805,6.029,CST-1368DR,6446,9036,15188,0.111,551
2020-04-19T00:24:12,42.805,6.029,CST-1368DR,6446,9036,15187,0.111,551
2020-04-19T00:27:13,42.805,6.029,CST-1368DR,6446,9037,15190,0.111,551
2020-04-19T00:30:15,42.805,6.029,CST-1368DR,6446,9037,15189,0.111,551
2020-04-19T00:33:17,42.805,6.029,CST-1368DR,6446,9037,15190,0.111,551
2020-04-19T00:36:18,42.805,6.029,CST-1368DR,6446,9036,15188,0.111,551
2020-04-19T00:39:20,42.805,6.029,CST-1368DR,6446,9036,15188,0.111,551
2020-04-19T00:42:22,42.805,6.029,CST-1368DR,6446,9037,15190,0.111,551
2020-04-19T00:45:23,42.805,6.029,CST-1368DR,6446,9037,15189,0.111,550
2020-04-19T00:48:25,42.805,6.029,CST-1368DR,6446,9034,15185,0.112,551
2020-04-19T00:51:27,42.805,6.029,CST-1368DR,6446,9037,15190,0.111,551
2020-04-19T00:54:29,42.805,6.029,CST-1368DR,6446,9033,15183,0.112,551
2020-04-19T00:57:30,42.805,6.029,CST-1368DR,6446,9036,15188,0.111,551
2020-04-19T01:00:32,42.805,6.029,CST-1368DR,6446,9036,15188,0.111,551
2020-04-19T01:03:34,42.805,6.029,CST-1368DR,6446,9037,15189,0.111,551
2020-04-19T01:06:36,42.805,6.029,CST-1368DR,6446,9037,15189,0.111,551
2020-04-19T01:09:37,42.805,6.029,CST-1368DR,6446,9037,15189,0.111,551
2020-04-19T01:12:39,42.805,6.029,CST-1368DR,6446,9036,15188,0.111,551
2020-04-19T01:15:41,42.805,6.029,CST-1368DR,6446,9033,15183,0.112,551
2020-04-19T01:18:42,42.805,6.029,CST-1368DR,6446,9037,15189,0.111,551
2020-04-19T01:21:44,42.805,6.029,CST-1368DR,6446,9035,15185,0.112,551
2020-04-19T01:24:46,42.805,6.029,CST-1368DR,6446,9037,15190,0.111,551
2020-04-19T01:27:48,42.805,6.029,CST-1368DR,6446,9037,15190,0.111,551
2020-04-19T01:30:49,42.805,6.029,CST-1368DR,6446,9036,15188,0.111,551
2020-04-19T01:33:51,42.805,6.029,CST-1368DR,6446,9035,15187,0.111,551
2020-04-19T01:36:53,42.805,6.029,CST-1368DR,6446,9036,15188,0.111,551
2020-04-19T01:39:54,42.805,6.029,CST-1368DR,6446,9035,15185,0.112,551
2020-04-19T01:42:56,42.805,6.029,CST-1368DR,6446,9037,15189,0.111,551
2020-04-19T01:45:58,42.805,6.029,CST-1368DR,6446,9036,15188,0.111,551
2020-04-19T01:48:59,42.805,6.029,CST-1368DR,6446,9037,15190,0.111,551
2020-04-19T01:52:01,42.805,6.029,CST-1368DR,6445,9035,15189,0.111,551
2020-04-19T01:55:03,42.805,6.029,CST-1368DR,6445,9037,15191,0.110,551
2020-04-19T01:58:04,42.805,6.029,CST-1368DR,6445,9033,15186,0.112,551
2020-04-19T02:01:06,42.805,6.029,CST-1368DR,6445,9036,15190,0.111,551
2020-04-19T02:04:08,42.805,6.029,CST-1368DR,6445,9036,15191,0.110,551
2020-04-19T02:07:10,42.805,6.029,CST-1368DR,6445,9035,15188,0.111,551
2020-04-19T02:10:11,42.805,6.029,CST-1368DR,6445,9036,15190,0.111,551
2020-04-19T02:13:13,42.805,6.029,CST-1368DR,6445,9037,15191,0.110,551
2020-04-19T02:16:15,42.805,6.029,CST-1368DR,6445,9036,15189,0.111,551
2020-04-19T02:19:16,42.805,6.029,CST-1368DR,6445,9036,15190,0.111,551
2020-04-19T02:22:18,42.805,6.029,CST-1368DR,6445,9037,15191,0.110,551
2020-04-19T02:25:20,42.805,6.029,CST-1368DR,6445,9032,15183,0.112,551
2020-04-19T02:28:21,42.805,6.029,CST-1368DR,6445,9036,15190,0.111,551
2020-04-19T02:31:23,42.805,6.029,CST-1368DR,6445,9035,15188,0.111,551
2020-04-19T02:34:25,42.805,6.029,CST-1368DR,6445,9037,15191,0.110,551
2020-04-19T02:37:27,42.805,6.029,CST-1368DR,6445,9035,15188,0.111,551
2020-04-19T02:40:28,42.805,6.029,CST-1368DR,6445,9036,15190,0.111,551
2020-04-19T02:43:30,42.805,6.029,CST-1368DR,6445,9037,15191,0.110,551
2020-04-19T02:46:32,42.805,6.029,CST-1368DR,6445,9035,15188,0.111,551
2020-04-19T02:49:33,42.805,6.029,CST-1368DR,6445,9036,15190,0.111,551
2020-04-19T02:52:35,42.805,6.029,CST-1368DR,6445,9036,15190,0.111,551
2020-04-19T02:55:37,42.805,6.029,CST-1368DR,6445,9036,15190,0.111,551
2020-04-19T02:58:38,42.805,6.029,CST-1368DR,6445,9032,15183,0.112,551
2020-04-19T03:01:40,42.805,6.029,CST-1368DR,6445,9033,15186,0.112,551
2020-04-19T03:04:42,42.805,6.029,CST-1368DR,6445,9036,15191,0.110,551
2020-04-19T03:07:44,42.805,6.029,CST-1368DR,6445,9036,15189,0.111,551
2020-04-19T03:10:45,42.805,6.029,CST-1368DR,6445,9036,15190,0.111,551
2020-04-19T03:13:47,42.805,6.029,CST-1368DR,6445,9036,15191,0.110,551
2020-04-19T03:16:49,42.805,6.029,CST-1368DR,6445,9036,15190,0.111,551
2020-04-19T03:19:50,42.805,6.029,CST-1368DR,6445,9035,15189,0.111,551
2020-04-19T03:22:52,42.805,6.029,CST-1368DR,6445,9036,15191,0.110,551
2020-04-19T03:25:54,42.805,6.029,CST-1368DR,6445,9033,15184,0.112,551
2020-04-19T03:28:56,42.805,6.029,CST-1368DR,6445,9036,15190,0.111,551
2020-04-19T03:31:57,42.805,6.029,CST-1368DR,6445,9035,15189,0.111,551
2020-04-19T03:34:59,42.805,6.029,CST-1368DR,6445,9035,15188,0.111,551
2020-04-19T03:38:01,42.805,6.029,CST-1368DR,6445,9036,15190,0.111,551
2020-04-19T03:41:02,42.805,6.029,CST-1368DR,6445,9036,15191,0.110,551
2020-04-19T03:44:04,42.805,6.029,CST-1368DR,6445,9036,15190,0.111,551
2020-04-19T03:47:06,42.805,6.029,CST-1368DR,6445,9036,15190,0.111,551
2020-04-19T03:50:07,42.805,6.029,CST-1368DR,6445,9036,15191,0.110,551
2020-04-19T03:53:09,42.805,6.029,CST-1368DR,6445,9036,15191,0.110,551
2020-04-19T03:56:11,42.805,6.029,CST-1368DR,6445,9035,15188,0.111,551
2020-04-19T03:59:13,42.805,6.029,CST-1368DR,6445,9036,15189,0.111,551
2020-04-19T04:02:14,42.805,6.029,CST-1368DR,6445,9035,15188,0.111,551
2020-04-19T04:05:16,42.805,6.029,CST-1368DR,6445,9035,15189,0.111,551
2020-04-19T04:08:18,42.805,6.029,CST-1368DR,6445,9035,15188,0.111,551
2020-04-19T04:11:19,42.805,6.029,CST-1368DR,6445,9036,15190,0.111,551
2020-04-19T04:14:21,42.805,6.029,CST-1368DR,6445,9036,15190,0.111,551
2020-04-19T04:17:23,42.805,6.029,CST-1368DR,6445,9035,15188,0.111,551
2020-04-19T04:20:24,42.805,6.029,CST-1368DR,6445,9036,15190,0.111,551
2020-04-19T04:23:26,42.805,6.029,CST-1368DR,6445,9036,15191,0.110,551
2020-04-19T04:26:28,42.805,6.029,CST-1368DR,6445,9036,15189,0.111,551
2020-04-19T04:29:30,42.805,6.029,CST-1368DR,6445,9035,15189,0.111,551
2020-04-19T04:32:31,42.805,6.029,CST-1368DR,6445,9036,15190,0.111,551
2020-04-19T04:35:33,42.805,6.029,CST-1368DR,6445,9036,15190,0.111,550
2020-04-19T04:38:35,42.805,6.029,CST-1368DR,6445,9036,15190,0.111,550
2020-04-19T04:41:36,42.805,6.029,CST-1368DR,6445,9035,15188,0.111,551
2020-04-19T04:44:38,42.805,6.029,CST-1368DR,6445,9035,15188,0.111,551
2020-04-19T04:47:40,42.805,6.029,CST-1368DR,6445,9036,15189,0.111,551
2020-04-19T04:50:42,42.805,6.029,CST-1368DR,6445,9035,15188,0.111,551
2020-04-19T04:53:43,42.805,6.029,CST-1368DR,6445,9035,15188,0.111,551
2020-04-19T04:56:45,42.805,6.029,CST-1368DR,6445,9036,15190,0.111,551
2020-04-19T04:59:47,42.805,6.029,CST-1368DR,6445,9035,15188,0.111,551
2020-04-19T05:02:48,42.805,6.029,CST-1368DR,6445,9035,15189,0.111,551
2020-04-19T05:05:50,42.805,6.029,CST-1368DR,6445,9034,15187,0.111,551
2020-04-19T05:08:52,42.805,6.029,CST-1368DR,6445,9034,15187,0.111,551
2020-04-19T05:11:53,42.805,6.029,CST-1368DR,6445,9035,15189,0.111,551
2020-04-19T05:14:55,42.805,6.029,CST-1368DR,6445,9033,15186,0.112,551
2020-04-19T05:17:57,42.805,6.029,CST-1368DR,6445,9036,15190,0.111,551
2020-04-19T05:20:59,42.805,6.029,CST-1368DR,6445,9034,15186,0.112,551
2020-04-19T05:24:00,42.805,6.029,CST-1368DR,6445,9036,15190,0.111,551
2020-04-19T05:27:02,42.805,6.029,CST-1368DR,6445,9035,15188,0.111,550
2020-04-19T05:30:04,42.805,6.029,CST-1368DR,6445,9036,15190,0.111,551
2020-04-19T05:33:05,42.805,6.029,CST-1368DR,6445,9034,15186,0.112,551
2020-04-19T05:36:07,42.805,6.029,CST-1368DR,6445,9035,15188,0.111,551
2020-04-19T05:39:09,42.805,6.029,CST-1368DR,6445,9035,15189,0.111,551
2020-04-19T05:42:10,42.805,6.029,CST-1368DR,6445,9035,15189,0.111,551
2020-04-19T05:45:12,42.805,6.029,CST-1368DR,6445,9033,15184,0.112,551
2020-04-19T05:48:14,42.805,6.029,CST-1368DR,6445,9034,15187,0.111,551
2020-04-19T05:51:15,42.805,6.029,CST-1368DR,6445,9035,15188,0.111,551
2020-04-19T05:54:17,42.805,6.029,CST-1368DR,6445,9036,15189,0.111,551
2020-04-19T05:57:19,42.805,6.029,CST-1368DR,6445,9035,15189,0.111,551
2020-04-19T06:00:20,42.805,6.029,CST-1368DR,6445,9035,15188,0.111,551
2020-04-19T06:03:22,42.805,6.029,CST-1368DR,6445,9034,15186,0.112,551
2020-04-19T06:06:24,42.805,6.029,CST-1368DR,6444,9035,15190,0.111,551
2020-04-19T06:09:26,42.805,6.029,CST-1368DR,6445,9034,15187,0.111,551
2020-04-19T06:12:27,42.805,6.029,CST-1368DR,6445,9034,15187,0.111,551
2020-04-19T06:15:29,42.805,6.029,CST-1368DR,6445,9032,15184,0.112,551
2020-04-19T06:18:31,42.805,6.029,CST-1368DR,6445,9035,15189,0.111,551
2020-04-19T06:21:32,42.805,6.029,CST-1368DR,6445,9035,15188,0.111,551
2020-04-19T06:24:34,42.805,6.029,CST-1368DR,6445,9036,15191,0.110,551
2020-04-19T06:27:36,42.805,6.029,CST-1368DR,6445,9035,15188,0.111,551
2020-04-19T06:30:37,42.805,6.029,CST-1368DR,6444,9034,15189,0.111,551
2020-04-19T06:33:39,42.805,6.029,CST-1368DR,6444,9036,15192,0.110,551
2020-04-19T06:36:41,42.805,6.029,CST-1368DR,6444,9034,15189,0.111,551
2020-04-19T06:39:43,42.805,6.029,CST-1368DR,6444,9035,15191,0.110,551
2020-04-19T06:42:44,42.805,6.029,CST-1368DR,6444,9035,15191,0.110,551
2020-04-19T06:45:46,42.805,6.029,CST-1368DR,6444,9034,15189,0.111,551
2020-04-19T06:48:48,42.805,6.029,CST-1368DR,6444,9035,15191,0.110,551
2020-04-19T06:51:49,42.805,6.029,CST-1368DR,6444,9033,15187,0.111,550
2020-04-19T06:54:51,42.805,6.029,CST-1368DR,6444,9035,15191,0.110,551
2020-04-19T06:57:53,42.805,6.029,CST-1368DR,6444,9033,15188,0.111,551
2020-04-19T07:00:55,42.805,6.029,CST-1368DR,6444,9034,15189,0.111,551
2020-04-19T07:03:57,42.805,6.029,CST-1368DR,6444,9036,15192,0.110,550
2020-04-19T07:06:58,42.805,6.029,CST-1368DR,6444,9035,15190,0.111,551
2020-04-19T07:10:00,42.805,6.029,CST-1368DR,6444,9036,15192,0.110,550
2020-04-19T07:13:02,42.805,6.029,CST-1368DR,6444,9035,15190,0.111,551
2020-04-19T07:16:03,42.805,6.029,CST-1368DR,6444,9035,15191,0.110,551
2020-04-19T07:19:05,42.805,6.029,CST-1368DR,6444,9034,15189,0.111,551
2020-04-19T07:22:07,42.805,6.029,CST-1368DR,6444,9034,15189,0.111,551
2020-04-19T07:25:09,42.805,6.029,CST-1368DR,6444,9035,15191,0.110,551
2020-04-19T07:28:10,42.805,6.029,CST-1368DR,6444,9035,15190,0.111,551
2020-04-19T07:31:12,42.805,6.029,CST-1368DR,6444,9035,15190,0.111,551
2020-04-19T07:34:14,42.805,6.029,CST-1368DR,6444,9035,15191,0.110,551
2020-04-19T07:37:16,42.805,6.029,CST-1368DR,6444,9033,15187,0.111,551
2020-04-19T07:40:17,42.805,6.029,CST-1368DR,6444,9034,15188,0.111,551
2020-04-19T07:43:19,42.805,6.029,CST-1368DR,6444,9034,15188,0.111,551
2020-04-19T07:46:21,42.805,6.029,CST-1368DR,6444,9034,15189,0.111,551
2020-04-19T07:49:22,42.805,6.029,CST-1368DR,6444,9034,15188,0.111,551
2020-04-19T07:52:24,42.805,6.029,CST-1368DR,6444,9035,15190,0.111,551
2020-04-19T07:55:26,42.805,6.029,CST-1368DR,6444,9035,15190,0.111,550
2020-04-19T07:58:27,42.805,6.029,CST-1368DR,6444,9034,15189,0.111,551
2020-04-19T08:01:29,42.805,6.029,CST-1368DR,6444,9033,15188,0.111,551
2020-04-19T08:04:31,42.805,6.029,CST-1368DR,6444,9034,15189,0.111,551
2020-04-19T08:07:32,42.805,6.029,CST-1368DR,6444,9027,15177,0.114,551
2020-04-19T08:10:34,42.805,6.029,CST-1368DR,6444,9034,15189,0.111,551
2020-04-19T08:13:36,42.805,6.029,CST-1368DR,6444,9034,15189,0.111,551
2020-04-19T08:16:38,42.805,6.029,CST-1368DR,6444,9034,15188,0.111,551
2020-04-19T08:19:39,42.805,6.029,CST-1368DR,6444,9034,15189,0.111,551
2020-04-19T08:22:41,42.805,6.029,CST-1368DR,6444,9035,15190,0.111,551
2020-04-19T08:25:43,42.805,6.029,CST-1368DR,6444,9035,15190,0.111,551
2020-04-19T08:28:44,42.805,6.029,CST-1368DR,6444,9034,15189,0.111,551
2020-04-19T08:31:46,42.805,6.029,CST-1368DR,6444,9034,15189,0.111,551
2020-04-19T08:34:48,42.805,6.029,CST-1368DR,6444,9035,15190,0.111,551
2020-04-19T08:37:49,42.805,6.029,CST-1368DR,6444,9034,15189,0.111,551
2020-04-19T08:40:51,42.805,6.029,CST-1368DR,6444,9034,15188,0.111,551
2020-04-19T08:43:53,42.805,6.029,CST-1368DR,6444,9033,15187,0.111,551
2020-04-19T08:46:54,42.805,6.029,CST-1368DR,6444,9035,15190,0.111,551
2020-04-19T08:49:56,42.805,6.029,CST-1368DR,6444,9033,15187,0.111,551
2020-04-19T08:52:58,42.805,6.029,CST-1368DR,6444,9034,15188,0.111,551
2020-04-19T08:56:00,42.805,6.029,CST-1368DR,6444,9034,15189,0.111,551
2020-04-19T08:59:01,42.805,6.029,CST-1368DR,6444,9034,15189,0.111,551
2020-04-19T09:02:03,42.805,6.029,CST-1368DR,6444,9034,15189,0.111,551
2020-04-19T09:05:05,42.805,6.029,CST-1368DR,6444,9034,15189,0.111,551
2020-04-19T09:08:06,42.805,6.029,CST-1368DR,6444,9034,15189,0.111,551
2020-04-19T09:11:08,42.805,6.029,CST-1368DR,6444,9033,15187,0.111,550
2020-04-19T09:14:10,42.805,6.029,CST-1368DR,6444,9034,15189,0.111,551
2020-04-19T09:17:11,42.805,6.029,CST-1368DR,6444,9033,15187,0.111,551
2020-04-19T09:20:13,42.805,6.029,CST-1368DR,6444,9035,15190,0.111,551
2020-04-19T09:23:15,42.805,6.029,CST-1368DR,6444,9034,15189,0.111,551
2020-04-19T09:26:17,42.805,6.029,CST-1368DR,6444,9033,15187,0.111,551
2020-04-19T09:29:18,42.805,6.029,CST-1368DR,6444,9033,15186,0.112,551
2020-04-19T09:32:20,42.805,6.029,CST-1368DR,6444,9033,15188,0.111,551
2020-04-19T09:35:22,42.805,6.029,CST-1368DR,6444,9034,15189,0.111,551
2020-04-19T09:38:23,42.805,6.029,CST-1368DR,6444,9033,15188,0.111,551
2020-04-19T09:41:25,42.805,6.029,CST-1368DR,6444,9033,15188,0.111,551
2020-04-19T09:44:27,42.805,6.029,CST-1368DR,6444,9033,15186,0.112,551
2020-04-19T09:47:28,42.805,6.029,CST-1368DR,6444,9033,15187,0.111,551
2020-04-19T09:50:30,42.805,6.029,CST-1368DR,6444,9033,15186,0.112,551
2020-04-19T09:53:32,42.805,6.029,CST-1368DR,6444,9034,15189,0.111,551
2020-04-19T09:56:34,42.805,6.029,CST-1368DR,6444,9034,15189,0.111,551
2020-04-19T09:59:35,42.805,6.029,CST-1368DR,6444,9033,15187,0.111,551
2020-04-19T10:02:37,42.805,6.029,CST-1368DR,6444,9033,15186,0.112,551
2020-04-19T10:05:39,42.805,6.029,CST-1368DR,6443,9033,15190,0.111,551
2020-04-19T10:08:40,42.805,6.029,CST-1368DR,6443,9033,15190,0.111,551
2020-04-19T10:11:42,42.805,6.029,CST-1368DR,6443,9033,15190,0.111,551
2020-04-19T10:14:44,42.805,6.029,CST-1368DR,6443,9032,15188,0.111,551
2020-04-19T10:17:46,42.805,6.029,CST-1368DR,6444,9032,15185,0.112,551
2020-04-19T10:20:47,42.805,6.029,CST-1368DR,6443,9032,15187,0.111,551
2020-04-19T10:23:49,42.805,6.029,CST-1368DR,6443,9033,15190,0.111,551
2020-04-19T10:26:51,42.805,6.029,CST-1368DR,6443,9032,15188,0.111,551
2020-04-19T10:29:52,42.805,6.029,CST-1368DR,6443,9033,15190,0.111,551
2020-04-19T10:32:54,42.805,6.029,CST-1368DR,6443,9032,15188,0.111,551
2020-04-19T10:35:56,42.805,6.029,CST-1368DR,6443,9032,15187,0.111,551
2020-04-19T10:38:57,42.805,6.029,CST-1368DR,6443,9033,15190,0.111,551
2020-04-19T10:41:59,42.805,6.029,CST-1368DR,6443,9034,15191,0.110,551
2020-04-19T10:45:01,42.805,6.029,CST-1368DR,6443,9034,15190,0.111,551
2020-04-19T10:48:02,42.805,6.029,CST-1368DR,6443,9031,15185,0.112,551
2020-04-19T10:51:04,42.805,6.029,CST-1368DR,6443,9033,15189,0.111,551
2020-04-19T10:54:06,42.805,6.029,CST-1368DR,6443,9033,15190,0.111,551
2020-04-19T10:57:08,42.805,6.029,CST-1368DR,6443,9029,15183,0.112,551
2020-04-19T11:00:09,42.805,6.029,CST-1368DR,6443,9033,15190,0.111,551
2020-04-19T11:03:11,42.805,6.029,CST-1368DR,6443,9033,15190,0.111,551
2020-04-19T11:06:13,42.805,6.029,CST-1368DR,6443,9033,15189,0.111,551
2020-04-19T11:09:14,42.805,6.029,CST-1368DR,6443,9034,15190,0.111,551
2020-04-19T11:12:16,42.805,6.029,CST-1368DR,6443,9031,15185,0.112,551
2020-04-19T11:15:18,42.805,6.029,CST-1368DR,6443,9033,15190,0.111,551
2020-04-19T11:18:20,42.805,6.029,CST-1368DR,6443,9029,15183,0.112,551
2020-04-19T11:21:21,42.805,6.029,CST-1368DR,6443,9034,15190,0.111,550
2020-04-19T11:24:23,42.805,6.029,CST-1368DR,6443,9032,15188,0.111,551
2020-04-19T11:27:25,42.805,6.029,CST-1368DR,6443,9033,15189,0.111,551
2020-04-19T11:30:26,42.805,6.029,CST-1368DR,6443,9032,15188,0.111,551
2020-04-19T11:33:28,42.805,6.029,CST-1368DR,6443,9032,15188,0.111,551
2020-04-19T11:36:30,42.805,6.029,CST-1368DR,6443,9032,15188,0.111,551
2020-04-19T11:39:31,42.805,6.029,CST-1368DR,6443,9033,15189,0.111,551
2020-04-19T11:42:33,42.805,6.029,CST-1368DR,6443,9033,15190,0.111,551
2020-04-19T11:45:35,42.805,6.029,CST-1368DR,6443,9033,15189,0.111,551
2020-04-19T11:48:37,42.805,6.029,CST-1368DR,6443,9034,15191,0.110,551
2020-04-19T11:51:38,42.805,6.029,CST-1368DR,6443,9033,15189,0.111,551
2020-04-19T11:54:40,42.805,6.029,CST-1368DR,6443,9032,15187,0.111,551
2020-04-19T11:57:42,42.805,6.029,CST-1368DR,6443,9034,15190,0.111,551
2020-04-19T12:00:44,42.805,6.029,CST-1368DR,6443,9033,15190,0.111,551
2020-04-19T12:03:45,42.805,6.029,CST-1368DR,6443,9033,15190,0.111,551
2020-04-19T12:06:47,42.805,6.029,CST-1368DR,6443,9034,15190,0.111,550
2020-04-19T12:09:49,42.805,6.029,CST-1368DR,6443,9033,15189,0.111,551
2020-04-19T12:12:50,42.805,6.029,CST-1368DR,6443,9033,15190,0.111,551
2020-04-19T12:15:52,42.805,6.029,CST-1368DR,6443,9033,15190,0.111,550
2020-04-19T12:18:54,42.805,6.029,CST-1368DR,6443,9032,15187,0.111,551
2020-04-19T12:21:56,42.805,6.029,CST-1368DR,6443,9031,15186,0.112,551
2020-04-19T12:24:57,42.805,6.029,CST-1368DR,6443,9030,15184,0.112,551
2020-04-19T12:27:59,42.805,6.029,CST-1368DR,6443,9031,15185,0.112,551
2020-04-19T12:31:01,42.805,6.029,CST-1368DR,6443,9032,15188,0.111,551
2020-04-19T12:34:02,42.805,6.029,CST-1368DR,6443,9032,15188,0.111,551
2020-04-19T12:37:04,42.805,6.029,CST-1368DR,6443,9032,15187,0.111,550
2020-04-19T12:40:06,42.805,6.029,CST-1368DR,6443,9032,15187,0.111,551
2020-04-19T12:43:07,42.805,6.029,CST-1368DR,6443,9034,15190,0.111,551
2020-04-19T12:46:09,42.805,6.029,CST-1368DR,6443,9029,15183,0.112,551
2020-04-19T12:49:11,42.805,6.029,CST-1368DR,6443,9030,15184,0.112,551
2020-04-19T12:52:12,42.805,6.029,CST-1368DR,6443,9032,15188,0.111,551
2020-04-19T12:55:14,42.805,6.029,CST-1368DR,6443,9032,15187,0.111,551
2020-04-19T12:58:16,42.805,6.029,CST-1368DR,6443,9032,15188,0.111,551
2020-04-19T13:01:17,42.805,6.029,CST-1368DR,6443,9031,15187,0.111,551
2020-04-19T13:04:19,42.805,6.029,CST-1368DR,6443,9028,15182,0.113,551
2020-04-19T13:07:21,42.805,6.029,CST-1368DR,6443,9033,15189,0.111,551
2020-04-19T13:10:23,42.805,6.029,CST-1368DR,6443,9033,15189,0.111,551
2020-04-19T13:13:24,42.805,6.029,CST-1368DR,6443,9032,15188,0.111,551
2020-04-19T13:16:26,42.805,6.029,CST-1368DR,6443,9032,15187,0.111,551
2020-04-19T13:19:28,42.805,6.029,CST-1368DR,6443,9032,15188,0.111,551
2020-04-19T13:22:29,42.805,6.029,CST-1368DR,6443,9033,15189,0.111,551
2020-04-19T13:25:31,42.805,6.029,CST-1368DR,6443,9032,15188,0.111,551
2020-04-19T13:28:33,42.805,6.029,CST-1368DR,6443,9032,15187,0.111,551
2020-04-19T13:31:34,42.805,6.029,CST-1368DR,6443,9032,15188,0.111,551
2020-04-19T13:34:36,42.805,6.029,CST-1368DR,6443,9032,15188,0.111,551
2020-04-19T13:37:38,42.805,6.029,CST-1368DR,6443,9033,15190,0.111,551
2020-04-19T13:40:39,42.805,6.029,CST-1368DR,6443,9033,15190,0.111,551
2020-04-19T13:43:41,42.805,6.029,CST-1368DR,6443,9030,15184,0.112,551
2020-04-19T13:46:43,42.805,6.029,CST-1368DR,6443,9033,15190,0.111,551
2020-04-19T13:49:45,42.805,6.029,CST-1368DR,6443,9033,15189,0.111,551
2020-04-19T13:52:47,42.805,6.029,CST-1368DR,6443,9033,15189,0.111,551
2020-04-19T13:55:48,42.805,6.029,CST-1368DR,6443,9032,15187,0.111,551
2020-04-19T13:58:50,42.805,6.029,CST-1368DR,6443,9032,15188,0.111,551
2020-04-19T14:01:52,42.805,6.029,CST-1368DR,6443,9032,15187,0.111,551
2020-04-19T14:04:53,42.805,6.029,CST-1368DR,6443,9033,15189,0.111,551
2020-04-19T14:07:55,42.805,6.029,CST-1368DR,6443,9033,15190,0.111,551
2020-04-19T14:10:57,42.805,6.029,CST-1368DR,6443,9033,15189,0.111,551
2020-04-19T14:13:58,42.805,6.029,CST-1368DR,6443,9032,15188,0.111,551
2020-04-19T14:17:00,42.805,6.029,CST-1368DR,6443,9033,15189,0.111,551
2020-04-19T14:20:02,42.805,6.029,CST-1368DR,6443,9032,15188,0.111,551
2020-04-19T14:23:03,42.805,6.029,CST-1368DR,6443,9032,15188,0.111,551
2020-04-19T14:26:05,42.805,6.029,CST-1368DR,6443,9032,15188,0.111,551
2020-04-19T14:29:07,42.805,6.029,CST-1368DR,6443,9032,15188,0.111,551
2020-04-19T14:32:08,42.805,6.029,CST-1368DR,6443,9032,15188,0.111,551
2020-04-19T14:35:10,42.805,6.029,CST-1368DR,6443,9032,15188,0.111,551
2020-04-19T14:38:12,42.805,6.029,CST-1368DR,6442,9033,15191,0.110,551
2020-04-19T14:41:13,42.805,6.029,CST-1368DR,6442,9031,15188,0.111,551
2020-04-19T14:44:15,42.805,6.029,CST-1368DR,6443,9033,15189,0.111,551
2020-04-19T14:47:17,42.805,6.029,CST-1368DR,6442,9032,15189,0.111,551
2020-04-19T14:50:19,42.805,6.029,CST-1368DR,6442,9032,15190,0.111,551
2020-04-19T14:53:20,42.805,6.029,CST-1368DR,6442,9033,15191,0.110,550
2020-04-19T14:56:22,42.805,6.029,CST-1368DR,6443,9032,15188,0.111,551
2020-04-19T14:59:23,42.805,6.029,CST-1368DR,6443,9032,15188,0.111,551
2020-04-19T15:02:25,42.805,6.029,CST-1368DR,6443,9032,15188,0.111,551
2020-04-19T15:05:27,42.805,6.029,CST-1368DR,6443,9032,15188,0.111,551
2020-04-19T15:08:29,42.805,6.029,CST-1368DR,6442,9032,15190,0.111,551
2020-04-19T15:11:30,42.805,6.029,CST-1368DR,6442,9032,15190,0.111,551
2020-04-19T15:14:32,42.805,6.029,CST-1368DR,6442,9032,15190,0.111,551
2020-04-19T15:17:34,42.805,6.029,CST-1368DR,6442,9032,15190,0.111,551
2020-04-19T15:20:35,42.805,6.029,CST-1368DR,6442,9032,15190,0.111,551
2020-04-19T15:23:37,42.805,6.029,CST-1368DR,6442,9032,15189,0.111,551
2020-04-19T15:26:39,42.805,6.029,CST-1368DR,6442,9032,15190,0.111,551
2020-04-19T15:29:40,42.805,6.029,CST-1368DR,6442,9032,15190,0.111,551
2020-04-19T15:32:42,42.805,6.029,CST-1368DR,6442,9031,15188,0.111,551
2020-04-19T15:35:44,42.805,6.029,CST-1368DR,6442,9031,15189,0.111,551
2020-04-19T15:38:45,42.805,6.029,CST-1368DR,6442,9032,15190,0.111,551
2020-04-19T15:41:47,42.805,6.029,CST-1368DR,6442,9032,15190,0.111,551
2020-04-19T15:44:49,42.805,6.029,CST-1368DR,6442,9028,15183,0.112,551
2020-04-19T15:47:50,42.805,6.029,CST-1368DR,6442,9031,15188,0.111,551
2020-04-19T15:50:52,42.805,6.029,CST-1368DR,6442,9032,15189,0.111,551
2020-04-19T15:53:54,42.805,6.029,CST-1368DR,6442,9032,15190,0.111,551
2020-04-19T15:56:55,42.805,6.029,CST-1368DR,6442,9032,15190,0.111,551
2020-04-19T15:59:57,42.805,6.029,CST-1368DR,6442,9029,15185,0.112,550
2020-04-19T16:02:59,42.805,6.029,CST-1368DR,6442,9030,15187,0.111,551
2020-04-19T16:06:00,42.805,6.029,CST-1368DR,6442,9031,15188,0.111,551
2020-04-19T16:09:02,42.805,6.029,CST-1368DR,6442,9031,15188,0.111,551
2020-04-19T16:12:04,42.805,6.029,CST-1368DR,6442,9029,15185,0.112,551
2020-04-19T16:15:05,42.805,6.029,CST-1368DR,6442,9031,15189,0.111,551
2020-04-19T16:18:07,42.805,6.029,CST-1368DR,6442,9028,15184,0.112,551
2020-04-19T16:21:09,42.805,6.029,CST-1368DR,6442,9030,15187,0.111,551
2020-04-19T16:24:10,42.805,6.029,CST-1368DR,6442,9031,15188,0.111,551
2020-04-19T16:27:12,42.805,6.029,CST-1368DR,6442,9031,15189,0.111,551
2020-04-19T16:30:14,42.805,6.029,CST-1368DR,6442,9031,15188,0.111,551
2020-04-19T16:33:15,42.805,6.029,CST-1368DR,6442,9031,15189,0.111,551
2020-04-19T16:36:17,42.805,6.029,CST-1368DR,6442,9031,15188,0.111,550
2020-04-19T16:39:19,42.805,6.029,CST-1368DR,6442,9031,15189,0.111,550
2020-04-19T16:42:20,42.805,6.029,CST-1368DR,6442,9031,15188,0.111,551
2020-04-19T16:45:22,42.805,6.029,CST-1368DR,6442,9031,15188,0.111,551
2020-04-19T16:48:24,42.805,6.029,CST-1368DR,6442,9032,15190,0.111,551
2020-04-19T16:51:25,42.805,6.029,CST-1368DR,6442,9031,15188,0.111,551
2020-04-19T16:54:27,42.805,6.029,CST-1368DR,6442,9029,15185,0.112,551